Maxwell AFB, AL

5:29 PM CDT on June 23, 2017 (GMT -0500)
Maxwell Air Force Base

Weather History for KMXF - January, 2014

Change the Weather History Date:

Friday, January 31, 2014

  Actual Average Record
Temperature  
Mean Temperature 40 °F -  
Max Temperature 57 °F 57 °F 78 °F (2002)
Min Temperature 23 °F 38 °F 23 °F (2014)
Degree Days  
Heating Degree Days 25    
Moisture  
Dew Point 26 °F    
Average Humidity 68    
Maximum Humidity 94    
Minimum Humidity 25    
Precipitation  
Precipitation 0.00 in - - ()
Sea Level Pressure  
Sea Level Pressure 30.19 in    
Wind  
Wind Speed 3 mph (North)    
Max Wind Speed 6 mph    
Max Gust Speed -    
Visibility 10 miles    
Events      
Averages and records for this station are not official NWS values.
T = Trace of Precipitation, MM = Missing Value Source: NWS Daily Summary

Daily Weather History Graph

Daily Weather History Graph

Search for Another Location

Airport or City:

Trip Planner

Search our weather history database for the weather conditions in past years. The results will help you decide how hot, cold, wet, or windy it might be!

Date:

Astronomy

Jan. 31, 2014 Rise Set
Actual Time 6:40 AM CST 5:17 PM CST
Civil Twilight 6:14 AM CST 5:43 PM CST
Nautical Twilight 5:45 AM CST 6:13 PM CST
Astronomical Twilight 5:16 AM CST 6:42 PM CST
Moon 6:55 AM CST (1/31) 6:34 PM CST (1/31)
Length of Visible Light 11h 29m
Length of Day
10h 37m
New Moon, 1% of the Moon is Illuminated
Jan 31
New Moon
Feb 6
First Quarter
Feb 14
Full
Feb 22
Last Quarter
Mar 1
New

Hourly Weather History & Observations

Time (CST) Temp. Windchill Dew Point Humidity Pressure Visibility Wind Dir Wind Speed Gust Speed Precip Events Conditions
12:57 AM 27.3 °F 23.4 °F 25.2 °F 92% 30.21 in 7.0 mi North 3.5 mph - N/A   Clear
1:58 AM 26.2 °F 22.1 °F 24.6 °F 94% 30.22 in 10.0 mi NE 3.5 mph - N/A   Clear
2:58 AM 26.6 °F 21.2 °F 25.0 °F 94% 30.20 in 10.0 mi NE 4.6 mph - N/A   Clear
3:58 AM 26.4 °F 19.8 °F 24.6 °F 93% 30.19 in 10.0 mi ENE 5.8 mph - N/A   Clear
4:58 AM 25.3 °F 19.7 °F 23.0 °F 91% 30.21 in 10.0 mi North 4.6 mph - N/A   Clear
5:58 AM 25.2 °F - 23.5 °F 94% 30.24 in 10.0 mi NNE 2.3 mph - N/A   Clear
6:58 AM 23.2 °F - 21.2 °F 92% 30.26 in 10.0 mi ENE 1.2 mph - N/A   Clear
7:58 AM 30.6 °F - 24.6 °F 79% 30.25 in 10.0 mi Calm Calm - N/A   Partly Cloudy
8:55 AM 36.0 °F - 25.0 °F 64% 30.25 in 10.0 mi Calm Calm - N/A   Partly Cloudy
9:58 AM 37.9 °F 35.5 °F 28.0 °F 68% 30.27 in 10.0 mi NW 3.5 mph - N/A   Clear
10:58 AM 42.4 °F - 28.8 °F 58% 30.25 in 10.0 mi Variable 1.2 mph - N/A   Clear
11:58 AM 46.9 °F - 27.7 °F 47% 30.22 in 10.0 mi Variable 4.6 mph - N/A   Clear
12:58 PM 50.0 °F - 26.8 °F 41% 30.18 in 10.0 mi NNE 2.3 mph - N/A   Clear
1:58 PM 53.2 °F - 23.4 °F 31% 30.14 in 10.0 mi Variable 2.3 mph - N/A   Clear
2:58 PM 55.6 °F - 20.1 °F 25% 30.13 in 10.0 mi NW 3.5 mph - N/A   Clear
3:58 PM 57.0 °F - 22.3 °F 26% 30.13 in 10.0 mi South 2.3 mph - N/A   Clear
4:58 PM 54.9 °F - 23.2 °F 29% 30.12 in 10.0 mi Calm Calm - N/A   Clear
5:58 PM 47.5 °F - 27.9 °F 47% 30.14 in 10.0 mi WNW 2.3 mph - N/A   Clear
6:58 PM 42.3 °F - 30.9 °F 64% 30.14 in 10.0 mi NW 1.2 mph - N/A   Clear
7:58 PM 37.2 °F - 28.0 °F 69% 30.14 in 10.0 mi Calm Calm - N/A   Clear
8:58 PM 35.4 °F 32.6 °F 27.9 °F 74% 30.14 in 10.0 mi ENE 3.5 mph - N/A   Clear
9:58 PM 33.6 °F - 30.9 °F 90% 30.15 in 10.0 mi WNW 1.2 mph - N/A   Clear
10:58 PM 33.4 °F 30.4 °F 28.6 °F 82% 30.14 in 10.0 mi ENE 3.5 mph - N/A   Clear
11:58 PM 32.5 °F 28.1 °F 30.2 °F 91% 30.13 in 10.0 mi West 4.6 mph - N/A   Clear